Weather in Rodyki

Russia / Stavropol Krai     45°56′58″N   41°57′04″E
temp.,
°C
wind,
m/s
gust,
m/s
humid.,
%
clouds,
%
prec.,
mm/h
press.,
hPa
HPBL,
m
4 july, mon
mon400:00+18nnw22455 0.0 101517
03:00+17wnw22525 0.0 101511
06:00+18w34515 0.0 1015109
09:00+25wnw34370 0.0 10151034
12:00+29wnw443099 0.0 10142888
15:00+30w562997 0.0 10132777
18:00+28wnw463488 0.0 1013819
21:00+23w22453 0.0 101314
5 july, tue
tue500:00+21wsw45500 0.0 101373
03:00+19w47560 0.0 1013107
06:00+20n37580 0.0 1014204
09:00+27ne56390 0.0 10151258
12:00+29ne56290 0.0 10152358
15:00+31ne55240 0.0 10142786
18:00+29ne65220 0.0 10142151
21:00+22ne49320 0.0 1015133
6 july, wed
wed600:00+19ene47420 0.0 101699
03:00+17ese47460 0.0 101698
06:00+18e37430 0.0 1016176
09:00+26e56280 0.0 10161135
12:00+29ene66230 0.0 10162214
15:00+30ene76210 0.0 10142361
18:00+29ene77220 0.0 10142208
21:00+21e512330 0.0 1015216
7 july, thu
thu700:00+19e412370 0.0 1015211
03:00+16e49470 0.0 1015152
06:00+18e513490 0.0 1016380
09:00+25ese911320 0.0 10151333
12:00+29ese911240 0.0 10141913
15:00+31e910220 0.0 10122294
18:00+30ese89240 0.0 10122250
21:00+23ese513360 0.0 1013336
8 july, fri
fri800:00+20ese615400 0.0 1013465
03:00+17e513580 0.0 1013331
06:00+18e513630 0.0 1014422
09:00+27ese912370 0.0 10131420
12:00+32ese911250 0.0 10122353
15:00+34ese910210 0.0 10103011
18:00+33e892227 0.0 10103058
21:00+27ese715260 0.0 1011576